Location: Arborea
(39.7744°N, 8.5819°E)
Time: 00:14:04
(UTC+00:00)

CZ-2C DEB - Pass Details

Date: 18 August 2022
Orbit: 681 x 928 km, 97.9° (Epoch: 29 September)

Event Time Altitude Azimuth Distance (km) Brightness Sun altitude
Rises 19:46:23 0° 36° (NE) 3,275 ? -16.2°
Reaches altitude 10° 19:50:13 10° 66° (ENE) 2,401 ? -16.8°
Enters shadow 19:50:43 11° 71° (ENE) 2,340 ? -16.9°
